Regional Weather Roundup
Issued by NWS Green Bay, WI

Home | Current Version | Previous Version | Graphics & Text | Print | Product List | Glossary Off
Versions: 1 2 3 4 5 6 7 8 9 10 11 12 13 14 15 16 17 18 19 20 21 22 23 24 25 26 27 28 29 30 31 32 33 34 35 36 37 38 39 40 41 42 43 44 45 46 47 48 49 50

372
ASUS43 KGRB 292300
RWRGRB

NORTH-CENTRAL AND NORTHEAST WISCONSIN REGIONAL WEATHER ROUNDUP
NATIONAL WEATHER SERVICE GREEN BAY WI
600 PM CDT MON MAY 29 2017

WIZ005-009-010>012-018-019-300000-
NORTH CENTRAL WISCONSIN

CITY           SKY/WX    TMP DP  RH WIND       PRES   REMARKS
IRONWOOD       CLOUDY    56  48  74 W13G20    29.72R
MANITOWISH WTR NOT AVBL
ARBOR VITAE    NOT AVBL
EAGLE RIVER    NOT AVBL
LAND O LAKES   MOSUNNY   58  50  77 W6        29.71S
RHINELANDER    CLOUDY    55  51  86 W7        29.73S
PHILLIPS       MOSUNNY   58  53  83 W5        29.73S
ANTIGO         NOT AVBL
TOMAHAWK       NOT AVBL
MERRILL        CLOUDY    61  52  72 W12G18    29.75R
$$

WIZ013-073-300000-
NORTHEAST WISCONSIN

CITY           SKY/WX    TMP DP  RH WIND       PRES   REMARKS
IRON MOUNTAIN  CLOUDY    58  50  75 W7        29.68S
MARINETTE      NOT AVBL
$$

WIZ017-030-035>037-045-300000-
CENTRAL WISCONSIN

CITY           SKY/WX    TMP DP  RH WIND       PRES   REMARKS
MEDFORD        NOT AVBL
WAUSAU         CLOUDY    60  50  69 W10       29.74F
MOSINEE        NOT AVBL
MARSHFIELD     CLOUDY    59  50  72 W12       29.77R
WISC RAPIDS    MOSUNNY   61  49  64 W10       29.80S
STEVENS POINT  NOT AVBL
WAUPACA        CLOUDY    64  49  59 W12       29.78S
SHAWANO        CLOUDY    62  54  74 SW8       29.74R
CLINTONVILLE   CLOUDY    61  46  59 SW10G16   29.76S
WAUTOMA        SUNNY     60  52  74 W13       29.80F
$$

WIZ038-039-048-051-300000-
FOX VALLEY

CITY           SKY/WX    TMP DP  RH WIND       PRES   REMARKS
NWS GREEN BAY  CLOUDY    61  47  59 W14G24    29.75R
APPLETON       PTSUNNY   61  45  55 W14G23    29.76R
OSHKOSH        CLOUDY    61  47  59 W14G22    29.78R
FOND DU LAC    LGT RAIN  60  47  61 NW18G35   29.79R
$$

WIZ022-050-052-300000-
EAST CENTRAL WISCONSIN

CITY           SKY/WX    TMP DP  RH WIND       PRES   REMARKS
EPHRAIM        NOT AVBL
WASHINGTON ISL NOT AVBL
STURGEON BAY   PTSUNNY   63  48  58 W13G21    29.73F
MANITOWOC      NOT AVBL
SHEBOYGAN      PTSUNNY   66  46  48 W21G30    29.77S
$$

LMZ563-521-522-541>543-300000-
LAKESHORE

STATION/POSITION TIME  TEMP    WIND        PRES    VSBY  WAVE
                       AIR SEA DIR/SP/G                  HT/PER
                 (UTC) (F)     (DEG/KT/KT) (MB)    (MI)  (FT/S)
SHEBOYGAN LKSHOR 2200   67     250/ 14/ 20 1007.4F
KEWAUNEE LKSHORE 2230   64     270/ 13/ 16 1007.1R
NORTHPORT PIER   2240   62     220/  4/ 12 1005.8S
N MID LAKE BUOY  2150   47 41  190/ 16/ 17 1006.0F         2/ 4
CHAMBERS ISLAND  2240   60     200/  6/ 11 1005.8R
MENOMINEE LKSHOR 2230          260/ 10/ 17 1005.3S
$$




USA.gov is the U.S. government's official web portal to all federal, state and local government web resources and services.